Simultaneous Nadir Overpasses (SNOs) Predictions

Prediction of SNOs between GOES-16 and NOAA-19 Satellite Orbit:

Table of predicted SNOs for the next 14.0 days since TLE Epoch: 5/13/2023
Index Date Time (GOES-16) GOES-16 Lat,Lon NOAA-19 Lat,Lon Distance(km) Time Diff (sec)
1 05/14/2023 13:50:48 0.02, -75.21 0.98, -79.30 468.08 80
2 05/15/2023 13:38:48 0.02, -75.21 0.28, -76.38 133.20 80
3 05/16/2023 13:24:06 0.02, -75.22 -0.36, -73.45 201.91 80
4 05/19/2023 01:46:57 -0.02, -75.24 -0.73, -78.24 343.24 80
5 05/20/2023 01:34:57 -0.02, -75.25 -0.01, -75.33 8.36 80
6 05/21/2023 01:20:15 -0.02, -75.27 0.66, -72.40 327.98 80
7 05/23/2023 13:43:03 0.01, -75.32 0.45, -77.18 212.15 80
8 05/24/2023 13:28:22 0.01, -75.34 -0.21, -74.25 123.97 80
9 05/25/2023 13:16:21 0.01, -75.36 -0.94, -71.33 460.22 80
10 05/27/2023 01:51:10 -0.00, -75.38 -0.85, -79.04 417.58 80
